Time,TemperatureF,DewpointF,PressureIn,WindDirection,WindDirectionDegrees,WindSpeedMPH,WindSpeedGustMPH,Humidity,HourlyPrecipIn,Conditions,Clouds,dailyrainin,SoftwareType,DateUTC
2013-05-13 00:02:00,56.1,42.0,29.21,West,271,0.0,0.0,59,0.00,,---,0.00,VWS V14.00,2013-05-13 07:02:00,
2013-05-13 00:07:00,55.9,42.3,29.21,West,271,0.0,0.0,60,0.00,,---,0.00,VWS V14.00,2013-05-13 07:07:00,
2013-05-13 00:13:00,55.8,42.1,29.21,West,271,0.0,0.0,60,0.00,,---,0.00,VWS V14.00,2013-05-13 07:13:00,
2013-05-13 00:18:00,55.8,42.1,29.21,West,271,0.0,0.0,60,0.00,,---,0.00,VWS V14.00,2013-05-13 07:18:00,
2013-05-13 00:23:00,55.6,41.9,29.21,West,271,0.0,0.0,60,0.00,,---,0.00,VWS V14.00,2013-05-13 07:23:00,
2013-05-13 00:29:00,55.4,41.8,29.21,West,271,0.0,0.0,60,0.00,,---,0.00,VWS V14.00,2013-05-13 07:29:00,
2013-05-13 00:35:00,55.4,42.2,29.21,West,271,0.0,0.0,61,0.00,,---,0.00,VWS V14.00,2013-05-13 07:35:00,
2013-05-13 00:41:00,55.2,42.0,29.21,West,271,0.0,0.0,61,0.00,,---,0.00,VWS V14.00,2013-05-13 07:41:00,
2013-05-13 00:47:00,55.2,42.4,29.21,West,271,0.0,0.0,62,0.00,,---,0.00,VWS V14.00,2013-05-13 07:47:00,
2013-05-13 00:52:00,55.2,42.9,29.21,West,271,0.0,0.0,63,0.00,,---,0.00,VWS V14.00,2013-05-13 07:52:00,
2013-05-13 00:58:00,55.0,43.1,29.21,West,271,0.0,0.0,64,0.00,,---,0.00,VWS V14.00,2013-05-13 07:58:00,
2013-05-13 01:03:00,55.0,43.1,29.21,West,271,0.0,0.0,64,0.00,,---,0.00,VWS V14.00,2013-05-13 08:03:00,
2013-05-13 01:09:00,55.0,43.5,29.21,West,271,0.0,0.0,65,0.00,,---,0.00,VWS V14.00,2013-05-13 08:09:00,
2013-05-13 01:17:00,54.9,43.3,29.21,West,271,0.0,0.0,65,0.00,,---,0.00,VWS V14.00,2013-05-13 08:17:00,
2013-05-13 01:22:00,54.7,43.6,29.21,West,271,0.0,0.0,66,0.00,,---,0.00,VWS V14.00,2013-05-13 08:22:00,
2013-05-13 01:27:00,54.5,43.4,29.21,West,271,0.0,0.0,66,0.00,,---,0.00,VWS V14.00,2013-05-13 08:27:00,
2013-05-13 01:32:00,54.5,43.4,29.21,West,271,0.0,0.0,66,0.00,,---,0.00,VWS V14.00,2013-05-13 08:32:00,
2013-05-13 01:54:00,53.8,42.3,29.18,West,271,0.0,0.0,65,0.00,,---,0.00,VWS V14.00,2013-05-13 08:54:00,
2013-05-13 01:59:00,53.6,42.1,29.18,West,271,0.0,0.0,65,0.00,,---,0.00,VWS V14.00,2013-05-13 08:59:00,
2013-05-13 02:04:00,53.6,42.5,29.18,West,271,0.0,0.0,66,0.00,,---,0.00,VWS V14.00,2013-05-13 09:04:00,
2013-05-13 02:09:00,53.6,42.5,29.18,West,267,0.0,0.0,66,0.00,,---,0.00,VWS V14.00,2013-05-13 09:09:00,
2013-05-13 02:15:00,53.8,43.1,29.18,West,267,0.0,0.0,67,0.00,,---,0.00,VWS V14.00,2013-05-13 09:15:00,
2013-05-13 02:21:00,53.8,43.1,29.18,WSW,240,0.0,0.0,67,0.00,,---,0.00,VWS V14.00,2013-05-13 09:21:00,
2013-05-13 02:27:00,53.8,43.1,29.18,WSW,240,0.0,0.0,67,0.00,,---,0.00,VWS V14.00,2013-05-13 09:27:00,
2013-05-13 02:42:00,54.0,43.7,29.18,WSW,240,0.0,0.0,68,0.00,,---,0.00,VWS V14.00,2013-05-13 09:42:00,
2013-05-13 02:48:00,54.0,43.7,29.18,WSW,240,0.0,0.0,68,0.00,,---,0.00,VWS V14.00,2013-05-13 09:48:00,
2013-05-13 02:54:00,53.8,43.5,29.18,WSW,240,0.0,0.0,68,0.00,,---,0.00,VWS V14.00,2013-05-13 09:54:00,
2013-05-13 03:00:00,53.8,43.5,29.18,WSW,240,0.0,0.0,68,0.00,,---,0.00,VWS V14.00,2013-05-13 10:00:00,
2013-05-13 03:06:00,53.6,43.3,29.18,WSW,240,0.0,0.0,68,0.00,,---,0.00,VWS V14.00,2013-05-13 10:06:00,
2013-05-13 03:11:00,53.6,43.3,29.18,WSW,240,0.0,0.0,68,0.00,,---,0.00,VWS V14.00,2013-05-13 10:11:00,
2013-05-13 03:17:00,53.4,43.1,29.18,WSW,240,0.0,0.0,68,0.00,,---,0.00,VWS V14.00,2013-05-13 10:17:00,
2013-05-13 03:22:00,53.4,43.1,29.18,WSW,241,0.0,0.0,68,0.00,,---,0.00,VWS V14.00,2013-05-13 10:22:00,
2013-05-13 03:27:00,53.4,43.1,29.18,WSW,241,0.0,0.0,68,0.00,,---,0.00,VWS V14.00,2013-05-13 10:27:00,
2013-05-13 03:32:00,53.4,43.1,29.18,WSW,241,0.0,0.0,68,0.00,,---,0.00,VWS V14.00,2013-05-13 10:32:00,
2013-05-13 03:37:00,53.4,43.1,29.18,WSW,240,0.0,0.0,68,0.00,,---,0.00,VWS V14.00,2013-05-13 10:37:00,
2013-05-13 03:43:00,53.2,43.0,29.18,WSW,240,0.0,0.0,68,0.00,,---,0.00,VWS V14.00,2013-05-13 10:43:00,
2013-05-13 03:49:00,53.2,43.0,29.18,WSW,240,0.0,0.0,68,0.00,,---,0.00,VWS V14.00,2013-05-13 10:49:00,
2013-05-13 03:54:00,53.2,43.0,29.18,WSW,240,0.0,0.0,68,0.00,,---,0.00,VWS V14.00,2013-05-13 10:54:00,
2013-05-13 03:59:00,53.2,43.0,29.18,WSW,240,0.0,0.0,68,0.00,,---,0.00,VWS V14.00,2013-05-13 10:59:00,
2013-05-13 04:05:00,53.2,43.0,29.18,WSW,240,0.0,0.0,68,0.00,,---,0.00,VWS V14.00,2013-05-13 11:05:00,
2013-05-13 04:11:00,53.2,43.0,29.18,WSW,240,0.0,0.0,68,0.00,,---,0.00,VWS V14.00,2013-05-13 11:11:00,
2013-05-13 04:16:00,53.2,43.0,29.18,WSW,240,0.0,0.0,68,0.00,,---,0.00,VWS V14.00,2013-05-13 11:16:00,
2013-05-13 04:21:00,53.2,43.0,29.18,WSW,240,0.0,0.0,68,0.00,,---,0.00,VWS V14.00,2013-05-13 11:21:00,
2013-05-13 04:27:00,53.2,43.0,29.18,WSW,240,0.0,0.0,68,0.00,,---,0.00,VWS V14.00,2013-05-13 11:27:00,
2013-05-13 04:33:00,53.2,43.0,29.18,WSW,240,0.0,0.0,68,0.00,,---,0.00,VWS V14.00,2013-05-13 11:33:00,
2013-05-13 04:38:00,53.2,43.0,29.18,WSW,240,0.0,0.0,68,0.00,,---,0.00,VWS V14.00,2013-05-13 11:38:00,
2013-05-13 04:44:00,53.2,43.0,29.18,WSW,240,0.0,0.0,68,0.00,,---,0.00,VWS V14.00,2013-05-13 11:44:00,
2013-05-13 04:50:00,53.1,42.8,29.18,WSW,241,0.0,0.0,68,0.00,,---,0.00,VWS V14.00,2013-05-13 11:50:00,
2013-05-13 04:55:00,53.1,42.8,29.18,WSW,240,0.0,0.0,68,0.00,,---,0.00,VWS V14.00,2013-05-13 11:55:00,
2013-05-13 05:00:00,52.7,42.5,29.18,WSW,240,0.0,0.0,68,0.00,,---,0.00,VWS V14.00,2013-05-13 12:00:00,
2013-05-13 05:05:00,52.5,41.9,29.18,WSW,240,0.0,0.0,67,0.00,,---,0.00,VWS V14.00,2013-05-13 12:05:00,
2013-05-13 05:11:00,52.0,41.4,29.18,WSW,240,0.0,0.0,67,0.00,,---,0.00,VWS V14.00,2013-05-13 12:11:00,
2013-05-13 05:16:00,51.8,41.2,29.18,WSW,240,0.0,0.0,67,0.00,,---,0.00,VWS V14.00,2013-05-13 12:16:00,
2013-05-13 05:21:00,51.6,41.0,29.18,WSW,240,0.0,0.0,67,0.00,,---,0.00,VWS V14.00,2013-05-13 12:21:00,
2013-05-13 05:27:00,51.4,41.2,29.18,WSW,240,0.0,0.0,68,0.00,,---,0.00,VWS V14.00,2013-05-13 12:27:00,
2013-05-13 05:32:00,51.6,41.4,29.18,WSW,240,0.0,0.0,68,0.00,,---,0.00,VWS V14.00,2013-05-13 12:32:00,
2013-05-13 05:37:00,51.6,41.8,29.18,WSW,240,0.0,0.0,69,0.00,,---,0.00,VWS V14.00,2013-05-13 12:37:00,
2013-05-13 05:43:00,52.0,42.1,29.21,WSW,240,0.0,0.0,69,0.00,,---,0.00,VWS V14.00,2013-05-13 12:43:00,
2013-05-13 05:48:00,52.0,42.1,29.21,WSW,240,0.0,0.0,69,0.00,,---,0.00,VWS V14.00,2013-05-13 12:48:00,
2013-05-13 05:54:00,52.3,42.5,29.21,WSW,240,0.0,0.0,69,0.00,,---,0.00,VWS V14.00,2013-05-13 12:54:00,
2013-05-13 06:09:00,52.5,43.0,29.21,WSW,240,0.0,0.0,70,0.00,,---,0.00,VWS V14.00,2013-05-13 13:09:00,
2013-05-13 06:33:00,52.9,43.4,29.21,WSW,240,0.0,0.0,70,0.00,,---,0.00,VWS V14.00,2013-05-13 13:33:00,
2013-05-13 06:38:00,53.1,43.9,29.21,WSW,240,0.0,0.0,71,0.00,,---,0.00,VWS V14.00,2013-05-13 13:38:00,
2013-05-13 06:44:00,53.2,44.1,29.21,WSW,240,0.0,0.0,71,0.00,,---,0.00,VWS V14.00,2013-05-13 13:44:00,
2013-05-13 06:50:00,53.4,44.3,29.21,WSW,240,0.0,0.0,71,0.00,,---,0.00,VWS V14.00,2013-05-13 13:50:00,
2013-05-13 06:55:00,53.4,44.3,29.21,WSW,240,0.0,0.0,71,0.00,,---,0.00,VWS V14.00,2013-05-13 13:55:00,
2013-05-13 07:01:00,53.4,43.9,29.21,WSW,241,0.0,0.0,70,0.00,,---,0.00,VWS V14.00,2013-05-13 14:01:00,
2013-05-13 07:07:00,53.6,44.1,29.21,WSW,240,0.0,0.0,70,0.00,,---,0.00,VWS V14.00,2013-05-13 14:07:00,
2013-05-13 07:12:00,53.8,44.2,29.21,WSW,240,0.0,0.0,70,0.00,,---,0.00,VWS V14.00,2013-05-13 14:12:00,
2013-05-13 07:17:00,54.0,44.4,29.21,WSW,240,0.0,0.0,70,0.00,,---,0.00,VWS V14.00,2013-05-13 14:17:00,
2013-05-13 07:22:00,54.1,44.6,29.21,WSW,240,0.0,0.0,70,0.00,,---,0.00,VWS V14.00,2013-05-13 14:22:00,
2013-05-13 07:27:00,54.3,44.8,29.21,WSW,240,0.0,0.0,70,0.00,,---,0.00,VWS V14.00,2013-05-13 14:27:00,
2013-05-13 07:33:00,54.5,44.9,29.21,WSW,240,0.0,0.0,70,0.00,,---,0.00,VWS V14.00,2013-05-13 14:33:00,
2013-05-13 07:39:00,54.9,45.3,29.21,WSW,240,0.0,0.0,70,0.00,,---,0.00,VWS V14.00,2013-05-13 14:39:00,
2013-05-13 07:45:00,55.2,45.6,29.21,West,271,0.0,0.0,70,0.00,,---,0.00,VWS V14.00,2013-05-13 14:45:00,
2013-05-13 07:50:00,55.4,45.4,29.21,West,271,0.0,0.0,69,0.00,,---,0.00,VWS V14.00,2013-05-13 14:50:00,
2013-05-13 07:56:00,55.6,45.2,29.21,West,271,0.0,0.0,68,0.00,,---,0.00,VWS V14.00,2013-05-13 14:56:00,
2013-05-13 08:08:00,56.1,45.3,29.21,West,271,0.0,0.0,67,0.00,,---,0.00,VWS V14.00,2013-05-13 15:08:00,
2013-05-13 08:14:00,56.3,45.1,29.23,West,273,0.0,0.0,66,0.00,,---,0.00,VWS V14.00,2013-05-13 15:14:00,
2013-05-13 08:19:00,56.5,44.9,29.23,West,272,0.0,0.0,65,0.00,,---,0.00,VWS V14.00,2013-05-13 15:19:00,
2013-05-13 08:25:00,56.8,44.8,29.23,West,259,0.0,0.0,64,0.00,,---,0.00,VWS V14.00,2013-05-13 15:25:00,
2013-05-13 08:30:00,57.2,45.2,29.23,West,259,0.0,0.0,64,0.00,,---,0.00,VWS V14.00,2013-05-13 15:30:00,
2013-05-13 08:35:00,57.4,44.9,29.23,WNW,288,0.0,0.0,63,0.00,,---,0.00,VWS V14.00,2013-05-13 15:35:00,
2013-05-13 08:40:00,57.6,44.2,29.23,West,262,0.0,0.0,61,0.00,,---,0.00,VWS V14.00,2013-05-13 15:40:00,
2013-05-13 08:46:00,57.7,44.4,29.23,West,264,0.0,0.0,61,0.00,,---,0.00,VWS V14.00,2013-05-13 15:46:00,
2013-05-13 08:52:00,57.9,43.7,29.23,West,263,0.0,0.0,59,0.00,,---,0.00,VWS V14.00,2013-05-13 15:52:00,
2013-05-13 08:57:00,57.9,43.7,29.23,West,269,0.0,0.0,59,0.00,,---,0.00,VWS V14.00,2013-05-13 15:57:00,
2013-05-13 09:02:00,58.1,43.4,29.23,West,269,0.0,0.0,58,0.00,,---,0.00,VWS V14.00,2013-05-13 16:02:00,
2013-05-13 09:07:00,58.1,43.4,29.23,West,261,0.0,0.0,58,0.00,,---,0.00,VWS V14.00,2013-05-13 16:07:00,
2013-05-13 09:13:00,58.3,43.1,29.23,West,278,0.0,0.0,57,0.00,,---,0.00,VWS V14.00,2013-05-13 16:13:00,
2013-05-13 09:19:00,58.5,43.3,29.23,North,0,0.0,0.0,57,0.00,,---,0.00,VWS V14.00,2013-05-13 16:19:00,
2013-05-13 09:24:00,59.0,43.3,29.23,WSW,257,0.0,0.0,56,0.00,,---,0.00,VWS V14.00,2013-05-13 16:24:00,
2013-05-13 09:30:00,59.2,43.5,29.23,SW,231,0.0,0.0,56,0.00,,---,0.00,VWS V14.00,2013-05-13 16:30:00,
2013-05-13 09:36:00,59.7,43.5,29.23,West,267,0.0,0.0,55,0.00,,---,0.00,VWS V14.00,2013-05-13 16:36:00,
2013-05-13 09:42:00,60.3,44.0,29.23,WSW,248,0.0,0.0,55,0.00,,---,0.00,VWS V14.00,2013-05-13 16:42:00,
2013-05-13 09:48:00,60.8,43.6,29.23,ESE,122,0.0,0.0,53,0.00,,---,0.00,VWS V14.00,2013-05-13 16:48:00,
2013-05-13 10:20:00,61.5,41.7,29.23,SE,128,0.0,0.0,48,0.00,,---,0.00,VWS V14.00,2013-05-13 17:20:00,
2013-05-13 10:26:00,61.7,41.8,29.23,SSE,167,0.0,0.0,48,0.00,,---,0.00,VWS V14.00,2013-05-13 17:26:00,
2013-05-13 10:31:00,61.9,42.0,29.23,SW,233,0.0,0.0,48,0.00,,---,0.00,VWS V14.00,2013-05-13 17:31:00,
2013-05-13 10:37:00,62.1,41.6,29.23,SE,134,0.0,0.0,47,0.00,,---,0.00,VWS V14.00,2013-05-13 17:37:00,
2013-05-13 10:42:00,62.2,41.8,29.23,SW,236,0.0,0.0,47,0.00,,---,0.00,VWS V14.00,2013-05-13 17:42:00,
2013-05-13 10:48:00,62.4,41.4,29.23,West,264,0.0,0.0,46,0.00,,---,0.00,VWS V14.00,2013-05-13 17:48:00,
2013-05-13 10:53:00,62.8,41.7,29.23,WSW,253,0.0,0.0,46,0.00,,---,0.00,VWS V14.00,2013-05-13 17:53:00,
2013-05-13 10:59:00,63.1,41.5,29.23,South,176,0.0,0.0,45,0.00,,---,0.00,VWS V14.00,2013-05-13 17:59:00,
2013-05-13 11:05:00,63.3,41.6,29.23,WSW,257,0.0,0.0,45,0.00,,---,0.00,VWS V14.00,2013-05-13 18:05:00,
2013-05-13 11:10:00,63.7,41.4,29.23,West,266,0.0,0.0,44,0.00,,---,0.00,VWS V14.00,2013-05-13 18:10:00,
2013-05-13 11:29:00,65.1,41.5,29.23,West,273,0.0,0.0,42,0.00,,---,0.00,VWS V14.00,2013-05-13 18:29:00,
2013-05-13 11:34:00,65.5,41.8,29.23,West,259,0.0,0.0,42,0.00,,---,0.00,VWS V14.00,2013-05-13 18:34:00,
2013-05-13 11:39:00,66.0,42.3,29.23,SW,216,0.0,0.0,42,0.00,,---,0.00,VWS V14.00,2013-05-13 18:39:00,
2013-05-13 11:44:00,66.4,41.3,29.23,SW,231,0.0,0.0,40,0.00,,---,0.00,VWS V14.00,2013-05-13 18:44:00,
2013-05-13 11:50:00,66.9,41.8,29.23,South,177,0.0,0.0,40,0.00,,---,0.00,VWS V14.00,2013-05-13 18:50:00,
2013-05-13 11:56:00,67.3,41.5,29.23,NNW,336,0.0,0.0,39,0.00,,---,0.00,VWS V14.00,2013-05-13 18:56:00,
2013-05-13 12:01:00,67.5,41.0,29.23,SE,126,0.0,0.0,38,0.00,,---,0.00,VWS V14.00,2013-05-13 19:01:00,
2013-05-13 12:06:00,67.6,41.2,29.23,SSE,147,0.0,0.0,38,0.00,,---,0.00,VWS V14.00,2013-05-13 19:06:00,
2013-05-13 12:11:00,68.0,40.8,29.23,WNW,299,0.0,0.0,37,0.00,,---,0.00,VWS V14.00,2013-05-13 19:11:00,
2013-05-13 12:16:00,68.5,40.5,29.23,WNW,282,0.0,0.0,36,0.00,,---,0.00,VWS V14.00,2013-05-13 19:16:00,
2013-05-13 12:22:00,68.9,40.9,29.23,ESE,118,0.0,3.6,36,0.00,,---,0.00,VWS V14.00,2013-05-13 19:22:00,
2013-05-13 12:30:00,76.8,41.3,29.21,SW,222,0.0,2.7,28,0.00,,---,0.00,VWS V14.00,2013-05-13 19:30:00,
2013-05-13 14:24:00,81.5,37.8,29.21,WSW,252,0.0,3.1,21,0.00,,---,0.00,VWS V14.00,2013-05-13 21:24:00,
2013-05-13 14:30:00,80.8,37.2,29.21,West,272,0.0,0.0,21,0.00,,---,0.00,VWS V14.00,2013-05-13 21:30:00,
2013-05-13 14:35:00,80.4,38.1,29.21,East,90,0.0,0.0,22,0.00,,---,0.00,VWS V14.00,2013-05-13 21:35:00,
2013-05-13 14:40:00,79.9,37.7,29.21,WNW,287,0.0,0.0,22,0.00,,---,0.00,VWS V14.00,2013-05-13 21:40:00,
2013-05-13 14:45:00,79.5,37.4,29.21,South,187,0.0,0.0,22,0.00,,---,0.00,VWS V14.00,2013-05-13 21:45:00,
2013-05-13 14:50:00,79.3,38.4,29.21,WNW,283,0.0,2.7,23,0.00,,---,0.00,VWS V14.00,2013-05-13 21:50:00,
2013-05-13 15:05:00,77.9,37.2,29.21,WNW,287,0.0,0.0,23,0.00,,---,0.00,VWS V14.00,2013-05-13 22:05:00,
2013-05-13 15:11:00,77.5,37.9,29.18,West,260,0.0,0.0,24,0.00,,---,0.00,VWS V14.00,2013-05-13 22:11:00,
2013-05-13 15:17:00,77.5,37.9,29.18,NW,312,0.0,0.0,24,0.00,,---,0.00,VWS V14.00,2013-05-13 22:17:00,
2013-05-13 15:23:00,77.4,37.8,29.18,WSW,245,0.0,0.0,24,0.00,,---,0.00,VWS V14.00,2013-05-13 22:23:00,
2013-05-13 15:28:00,77.2,37.6,29.18,SW,230,0.0,0.0,24,0.00,,---,0.00,VWS V14.00,2013-05-13 22:28:00,
2013-05-13 15:34:00,77.0,37.5,29.18,WSW,257,0.0,0.0,24,0.00,,---,0.00,VWS V14.00,2013-05-13 22:34:00,
2013-05-13 15:40:00,76.6,37.2,29.18,SE,141,0.0,0.0,24,0.00,,---,0.00,VWS V14.00,2013-05-13 22:40:00,
2013-05-13 15:45:00,76.5,37.0,29.18,West,262,0.0,0.0,24,0.00,,---,0.00,VWS V14.00,2013-05-13 22:45:00,
2013-05-13 15:51:00,76.5,36.0,29.18,SSW,192,0.0,0.0,23,0.00,,---,0.00,VWS V14.00,2013-05-13 22:51:00,
2013-05-13 15:56:00,76.1,36.7,29.18,West,263,0.0,2.2,24,0.00,,---,0.00,VWS V14.00,2013-05-13 22:56:00,
2013-05-13 16:02:00,75.4,36.1,29.18,SW,223,0.0,0.0,24,0.00,,---,0.00,VWS V14.00,2013-05-13 23:02:00,
2013-05-13 16:07:00,75.2,37.0,29.18,SSW,199,0.0,0.0,25,0.00,,---,0.00,VWS V14.00,2013-05-13 23:07:00,
2013-05-13 16:18:00,74.3,36.2,29.15,West,280,0.0,0.0,25,0.00,,---,0.00,VWS V14.00,2013-05-13 23:18:00,
2013-05-13 16:24:00,73.9,36.9,29.15,SSE,156,0.0,0.0,26,0.00,,---,0.00,VWS V14.00,2013-05-13 23:24:00,
2013-05-13 16:29:00,73.6,36.6,29.15,West,272,0.0,0.0,26,0.00,,---,0.00,VWS V14.00,2013-05-13 23:29:00,
2013-05-13 16:34:00,73.4,36.5,29.15,SE,129,0.0,0.0,26,0.00,,---,0.00,VWS V14.00,2013-05-13 23:34:00,
2013-05-13 16:39:00,73.0,37.1,29.15,SSE,167,0.0,0.0,27,0.00,,---,0.00,VWS V14.00,2013-05-13 23:39:00,
2013-05-13 16:45:00,72.7,36.8,29.15,SSE,150,0.0,0.0,27,0.00,,---,0.00,VWS V14.00,2013-05-13 23:45:00,
2013-05-13 16:50:00,72.1,37.3,29.15,South,189,0.0,0.0,28,0.00,,---,0.00,VWS V14.00,2013-05-13 23:50:00,
2013-05-13 16:55:00,71.8,37.0,29.15,WNW,287,0.0,0.0,28,0.00,,---,0.00,VWS V14.00,2013-05-13 23:55:00,
2013-05-13 17:01:00,71.4,37.5,29.15,WNW,286,0.0,0.0,29,0.00,,---,0.00,VWS V14.00,2013-05-14 00:01:00,
2013-05-13 17:06:00,71.2,38.2,29.15,SE,144,0.0,0.0,30,0.00,,---,0.00,VWS V14.00,2013-05-14 00:06:00,
2013-05-13 17:11:00,71.1,38.9,29.15,WNW,295,0.0,0.0,31,0.00,,---,0.00,VWS V14.00,2013-05-14 00:11:00,
2013-05-13 17:16:00,70.9,38.8,29.15,WNW,287,0.0,0.0,31,0.00,,---,0.00,VWS V14.00,2013-05-14 00:16:00,
2013-05-13 17:29:00,70.2,39.0,29.15,West,276,0.0,0.0,32,0.00,,---,0.00,VWS V14.00,2013-05-14 00:29:00,
2013-05-13 17:36:00,69.8,38.6,29.15,South,173,0.0,0.0,32,0.00,,---,0.00,VWS V14.00,2013-05-14 00:36:00,
2013-05-13 17:45:00,69.4,39.1,29.15,WNW,293,0.0,0.0,33,0.00,,---,0.00,VWS V14.00,2013-05-14 00:45:00,
2013-05-13 17:50:00,69.3,39.0,29.15,WNW,293,0.0,0.0,33,0.00,,---,0.00,VWS V14.00,2013-05-14 00:50:00,
2013-05-13 17:56:00,69.1,38.8,29.15,WNW,284,0.0,0.0,33,0.00,,---,0.00,VWS V14.00,2013-05-14 00:56:00,
2013-05-13 18:01:00,68.9,38.6,29.15,NW,310,0.0,0.0,33,0.00,,---,0.00,VWS V14.00,2013-05-14 01:01:00,
2013-05-13 18:07:00,68.4,38.2,29.15,WNW,290,0.0,0.0,33,0.00,,---,0.00,VWS V14.00,2013-05-14 01:07:00,
2013-05-13 18:14:00,68.0,37.8,29.12,NW,319,0.0,0.0,33,0.00,,---,0.00,VWS V14.00,2013-05-14 01:14:00,
2013-05-13 18:19:00,67.8,38.5,29.12,West,265,0.0,0.0,34,0.00,,---,0.00,VWS V14.00,2013-05-14 01:19:00,
2013-05-13 18:24:00,67.6,38.3,29.12,West,266,0.0,0.0,34,0.00,,---,0.00,VWS V14.00,2013-05-14 01:24:00,
2013-05-13 18:29:00,67.5,38.1,29.12,West,267,0.0,0.0,34,0.00,,---,0.00,VWS V14.00,2013-05-14 01:29:00,
2013-05-13 18:36:00,67.3,38.0,29.12,WSW,258,0.0,0.0,34,0.00,,---,0.00,VWS V14.00,2013-05-14 01:36:00,
2013-05-13 18:41:00,67.1,38.6,29.12,WSW,258,0.0,0.0,35,0.00,,---,0.00,VWS V14.00,2013-05-14 01:41:00,
2013-05-13 18:48:00,66.6,38.1,29.12,West,268,0.0,0.0,35,0.00,,---,0.00,VWS V14.00,2013-05-14 01:48:00,
2013-05-13 18:54:00,66.4,37.9,29.12,West,268,0.0,0.0,35,0.00,,---,0.00,VWS V14.00,2013-05-14 01:54:00,
2013-05-13 19:00:00,66.0,38.3,29.12,West,268,0.0,0.0,36,0.00,,---,0.00,VWS V14.00,2013-05-14 02:00:00,
2013-05-13 19:05:00,65.8,38.2,29.12,West,268,0.0,0.0,36,0.00,,---,0.00,VWS V14.00,2013-05-14 02:05:00,
2013-05-13 19:11:00,65.5,37.8,29.12,West,268,0.0,0.0,36,0.00,,---,0.00,VWS V14.00,2013-05-14 02:11:00,
2013-05-13 19:16:00,65.3,38.4,29.12,West,268,0.0,0.0,37,0.00,,---,0.00,VWS V14.00,2013-05-14 02:16:00,
2013-05-13 19:21:00,64.9,38.1,29.12,West,265,0.0,0.0,37,0.00,,---,0.00,VWS V14.00,2013-05-14 02:21:00,
2013-05-13 19:26:00,64.6,37.8,29.12,West,260,0.0,0.0,37,0.00,,---,0.00,VWS V14.00,2013-05-14 02:26:00,
2013-05-13 19:37:00,63.9,37.8,29.12,West,260,0.0,0.0,38,0.00,,---,0.00,VWS V14.00,2013-05-14 02:37:00,
2013-05-13 19:42:00,63.5,37.5,29.12,West,264,0.0,0.0,38,0.00,,---,0.00,VWS V14.00,2013-05-14 02:42:00,
2013-05-13 19:48:00,63.1,37.1,29.12,West,264,0.0,0.0,38,0.00,,---,0.00,VWS V14.00,2013-05-14 02:48:00,
2013-05-13 19:53:00,63.0,37.6,29.12,West,264,0.0,0.0,39,0.00,,---,0.00,VWS V14.00,2013-05-14 02:53:00,
2013-05-13 19:58:00,62.6,37.3,29.12,West,264,0.0,0.0,39,0.00,,---,0.00,VWS V14.00,2013-05-14 02:58:00,
2013-05-13 20:03:00,62.2,37.6,29.12,West,264,0.0,0.0,40,0.00,,---,0.00,VWS V14.00,2013-05-14 03:03:00,
2013-05-13 20:09:00,61.9,37.3,29.12,West,264,0.0,0.0,40,0.00,,---,0.00,VWS V14.00,2013-05-14 03:09:00,
2013-05-13 20:15:00,61.5,37.0,29.12,West,264,0.0,0.0,40,0.00,,---,0.00,VWS V14.00,2013-05-14 03:15:00,
2013-05-13 20:21:00,61.2,36.7,29.12,West,264,0.0,0.0,40,0.00,,---,0.00,VWS V14.00,2013-05-14 03:21:00,
2013-05-13 20:26:00,60.8,36.3,29.12,West,264,0.0,0.0,40,0.00,,---,0.00,VWS V14.00,2013-05-14 03:26:00,
2013-05-13 20:34:00,60.3,36.5,29.12,West,264,0.0,0.0,41,0.00,,---,0.00,VWS V14.00,2013-05-14 03:34:00,
2013-05-13 20:39:00,60.1,36.3,29.12,West,264,0.0,0.0,41,0.00,,---,0.00,VWS V14.00,2013-05-14 03:39:00,
2013-05-13 20:46:00,59.7,36.6,29.12,West,264,0.0,0.0,42,0.00,,---,0.00,VWS V14.00,2013-05-14 03:46:00,
2013-05-13 20:52:00,59.4,36.3,29.12,West,264,0.0,0.0,42,0.00,,---,0.00,VWS V14.00,2013-05-14 03:52:00,
2013-05-13 20:57:00,59.2,36.7,29.12,West,264,0.0,0.0,43,0.00,,---,0.00,VWS V14.00,2013-05-14 03:57:00,
2013-05-13 21:01:00,59.0,36.6,29.12,West,264,0.0,0.0,43,0.00,,---,0.00,VWS V14.00,2013-05-14 04:01:00,
2013-05-13 21:02:00,59.0,37.1,29.12,West,264,0.0,0.0,44,0.00,,---,0.00,VWS V14.00,2013-05-14 04:02:00,
2013-05-13 21:03:00,59.0,37.1,29.12,West,264,0.0,0.0,44,0.00,,---,0.00,VWS V14.00,2013-05-14 04:03:00,
2013-05-13 21:04:00,59.0,37.1,29.12,West,264,0.0,0.0,44,0.00,,---,0.00,VWS V14.00,2013-05-14 04:04:00,
2013-05-13 21:06:00,59.0,37.1,29.12,West,264,0.0,0.0,44,0.00,,---,0.00,VWS V14.00,2013-05-14 04:06:00,
2013-05-13 21:11:00,58.8,37.5,29.12,West,264,0.0,0.0,45,0.00,,---,0.00,VWS V14.00,2013-05-14 04:11:00,
2013-05-13 21:16:00,58.8,37.5,29.12,West,264,0.0,0.0,45,0.00,,---,0.00,VWS V14.00,2013-05-14 04:16:00,
2013-05-13 21:22:00,58.8,37.5,29.12,West,264,0.0,0.0,45,0.00,,---,0.00,VWS V14.00,2013-05-14 04:22:00,
2013-05-13 21:31:00,58.5,37.2,29.12,West,264,0.0,0.0,45,0.00,,---,0.00,VWS V14.00,2013-05-14 04:31:00,
2013-05-13 21:36:00,58.3,37.6,29.12,West,264,0.0,0.0,46,0.00,,---,0.00,VWS V14.00,2013-05-14 04:36:00,
2013-05-13 21:41:00,58.1,37.5,29.12,West,264,0.0,0.0,46,0.00,,---,0.00,VWS V14.00,2013-05-14 04:41:00,
2013-05-13 21:47:00,57.9,37.3,29.12,West,264,0.0,0.0,46,0.00,,---,0.00,VWS V14.00,2013-05-14 04:47:00,
2013-05-13 21:52:00,57.7,37.1,29.12,West,264,0.0,0.0,46,0.00,,---,0.00,VWS V14.00,2013-05-14 04:52:00,
2013-05-13 21:57:00,57.6,37.5,29.12,West,264,0.0,0.0,47,0.00,,---,0.00,VWS V14.00,2013-05-14 04:57:00,
2013-05-13 22:02:00,57.6,37.5,29.12,West,264,0.0,0.0,47,0.00,,---,0.00,VWS V14.00,2013-05-14 05:02:00,
2013-05-13 22:08:00,57.4,37.9,29.12,West,264,0.0,0.0,48,0.00,,---,0.00,VWS V14.00,2013-05-14 05:08:00,
2013-05-13 22:13:00,57.2,37.7,29.12,West,264,0.0,0.0,48,0.00,,---,0.00,VWS V14.00,2013-05-14 05:13:00,
2013-05-13 22:19:00,57.0,38.1,29.12,West,264,0.0,0.0,49,0.00,,---,0.00,VWS V14.00,2013-05-14 05:19:00,
2013-05-13 22:24:00,57.0,38.1,29.12,West,264,0.0,0.0,49,0.00,,---,0.00,VWS V14.00,2013-05-14 05:24:00,
2013-05-13 22:30:00,56.8,37.9,29.12,West,264,0.0,0.0,49,0.00,,---,0.00,VWS V14.00,2013-05-14 05:30:00,
2013-05-13 22:41:00,56.7,38.2,29.12,West,264,0.0,0.0,50,0.00,,---,0.00,VWS V14.00,2013-05-14 05:41:00,
2013-05-13 22:46:00,56.7,38.2,29.12,West,264,0.0,0.0,50,0.00,,---,0.00,VWS V14.00,2013-05-14 05:46:00,
2013-05-13 22:51:00,56.5,38.1,29.12,West,264,0.0,0.0,50,0.00,,---,0.00,VWS V14.00,2013-05-14 05:51:00,
2013-05-13 22:57:00,56.3,38.4,29.12,West,264,0.0,0.0,51,0.00,,---,0.00,VWS V14.00,2013-05-14 05:57:00,
2013-05-13 23:02:00,56.1,38.3,29.12,West,264,0.0,0.0,51,0.00,,---,0.00,VWS V14.00,2013-05-14 06:02:00,
2013-05-13 23:08:00,55.9,38.1,29.12,West,264,0.0,0.0,51,0.00,,---,0.00,VWS V14.00,2013-05-14 06:08:00,
2013-05-13 23:14:00,55.9,38.6,29.12,West,264,0.0,0.0,52,0.00,,---,0.00,VWS V14.00,2013-05-14 06:14:00,
2013-05-13 23:19:00,55.8,38.4,29.12,West,264,0.0,0.0,52,0.00,,---,0.00,VWS V14.00,2013-05-14 06:19:00,
2013-05-13 23:26:00,55.8,38.9,29.09,West,264,0.0,0.0,53,0.00,,---,0.00,VWS V14.00,2013-05-14 06:26:00,
2013-05-13 23:32:00,55.6,38.7,29.09,West,264,0.0,0.0,53,0.00,,---,0.00,VWS V14.00,2013-05-14 06:32:00,
2013-05-13 23:37:00,55.4,39.0,29.09,West,264,0.0,0.0,54,0.00,,---,0.00,VWS V14.00,2013-05-14 06:37:00,
2013-05-13 23:43:00,55.2,39.3,29.12,West,264,0.0,0.0,55,0.00,,---,0.00,VWS V14.00,2013-05-14 06:43:00,
2013-05-13 23:48:00,55.2,39.8,29.12,West,264,0.0,0.0,56,0.00,,---,0.00,VWS V14.00,2013-05-14 06:48:00,
2013-05-13 23:53:00,55.2,40.3,29.12,West,264,0.0,0.0,57,0.00,,---,0.00,VWS V14.00,2013-05-14 06:53:00,
2013-05-13 23:59:00,55.0,40.1,29.12,West,264,0.0,0.0,57,0.00,,---,0.00,VWS V14.00,2013-05-14 06:59:00,